www.pogodaiklimat.ru

Погода и климат >> Архив погоды >> Россия >> Свердловская область >> Верхотурье


ПОГОДА в Верхотурье

  • Прогноз погоды в Верхотурье
  • Монитор погоды в Верхотурье

АРХИВ ПОГОДЫ в Верхотурье

Время (UTC), дата Ветер
(напр.,м/с)
 
Видим.   Явления Облачность Т
(С)
Тd
(С)
f
(%)
Тe
(С)
Тes
(С)
Комфортность P
(гПа)
Po
(гПа)
Тmin
(С)
Tmax
(С)
R
(мм)
R24
(мм)
S
(см)
00 15.09 Ю 1 20 км 10/0
[Ac trans Cs]
+12.7 +8.6 76 +13 +13 1008.9 993.9
03 15.09 Ю 2 50 км 10/0
[Ac trans Cs]
+13.8 +8.1 68 +13 +14 1007.9 993.0 +10.7
06 15.09 Ю 2 50 км 10/1 600 м
[Sc Ac trans Cs]
+17.4 +7.9 54 +18 +20 1006.9 992.2
09 15.09 ЮЗ 2 50 км 10/5 300 м
[Cb calv Ac und Cs]
+20.2 +8.1 46 +22 +23 комфорт 1005.9 991.4
12 15.09 ЮЗ 2 50 км 10/6 300 м
[Cb calv Ac trans Cs]
+19.9 +7.6 45 +21 +22 комфорт 1004.6 990.1
15 15.09 ЮЗ 2
{10}
20 км в посл. час ливневой дождь 10/3 300 м
[Cb calv Ac As]
+13.2 +10.1 81 +12 +12 1005.6 990.7 +21.3 0.3
18 15.09 ЮЗ 2 20 км {ливн. осадки} 9/4 600 м
[Sc Ac und]
+12.3 +8.7 79 +11 +11 1005.9 990.9
21 15.09 ЮЗ 2 20 км 10/5 300 м
[Cb calv Ac As]
+11.1 +7.6 79 +10 +10 1005.7 990.7
00 16.09 ЮЗ 1 20 км 10/3 600 м
[Sc Ac trans Cs]
+8.9 +6.5 85 +8 +8 1005.4 990.3
03 16.09 ЮЗ 1 20 км 10/3 600 м
[Sc Ac As]
+8.1 +6.4 89 +7 +7 1005.2 990.0 +6.8
06 16.09 ЮЗ 2 50 км 8/3 300 м
[Cb calv Ac und]
+10.6 +6.4 75 +9 +11 1004.5 989.5
09 16.09 З 3 50 км 8/8 300 м
[Cb calv]
+13.9 +2.9 47 +13 +14 1003.1 988.2
12 16.09 ЮЗ 3 50 км 6/3 300 м
[Cb calv Ac trans Ci sp]
+14.5 +0.9 40 +14 +15 1002.0 987.3
15 16.09 Ю 3 20 км 3/3 600 м
[Sc]
+9.9 +3.2 63 +8 +8 1001.6 986.6 +15.5
18 16.09 Ю 2 20 км 3/1 600 м
[Sc Ac trans]
+7.0 +4.0 81 +5 +5 1000.5 985.4
21 16.09 Ю 2 10 км слаб. ливневой дождь 10/5 300 м
[Cb calv As trans]
+7.3 +4.7 84 +5 +5 998.4 983.3
00 17.09 Ю 2 4000 м слаб. ливневой дождь 10/8 300 м
[Cb calv As trans]
+7.1 +5.9 92 +5 +5 996.4 981.4
03 17.09 Ю 2 20 км {ливн. осадки} 10/8 300 м
[Cb calv Ac As]
+7.8 +6.4 91 +6 +6 995.4 980.3 +6.5 2
06 17.09 ЮЗ 3 50 км {ливн. осадки} 9/6 300 м
[Cb calv Ac trans]
+10.3 +7.1 81 +8 +9 995.7 980.8
09 17.09 ЮЗ 4 50 км 8/8 300 м
[Cb calv Ac trans]
+13.9 +6.2 60 +13 +13 996.2 981.5
12 17.09 З 4
{10}
50 км в посл. час ливневой дождь 5/4 300 м
[Cb calv Ac trans]
+12.3 +5.9 65 +10 +11 997.5 982.7
15 17.09 Ю 1 20 км 3/3 300 м
[Cb calv]
+9.5 +6.6 82 +9 +9 998.6 983.6 +13.9 0.3
18 17.09 Ю 2 20 км 1/1 600 м
[Sc]
+7.9 +6.0 88 +6 +6 998.2 983.2
21 17.09 ЮЗ 2 20 км {ливн. осадки} 8/4 300 м
[Cb calv Ac und]
+8.7 +6.7 87 +7 +7 997.3 982.3
00 18.09 Ю 1 20 км {ливн. осадки} 5/5 300 м
[Cb calv]
+7.8 +6.2 90 +7 +7 997.3 982.3
03 18.09 Ю 2 20 км в посл. час ливневой дождь 9/8 300 м
[Cb calv Ac und]
+8.6 +6.9 89 +7 +7 997.2 982.2 +7.7 0.5
06 18.09 ЮЗ 3 50 км {ливн. осадки} 8/5 300 м
[Cb calv Ac und]
+11.8 +6.6 70 +10 +11 997.6 982.7
09 18.09 ЮЗ 2
{11}
50 км 6/5 300 м
[Cb calv Ac trans]
+13.9 +4.7 54 +14 +16 997.4 982.7
12 18.09 ЮЗ 2
{10}
50 км {ливн. осадки} 3/3 300 м
[Cb calv Ci sp]
+14.1 +4.9 54 +14 +15 998.0 983.3
15 18.09 ЮЗ 2 20 км 3/1 600 м
[Sc Ci sp]
+9.9 +3.9 66 +9 +9 998.9 983.9 +14.8 0.8
18 18.09 ЮВ 1 20 км 10/1 600 м
[Sc Ac trans Cs]
+5.7 +3.8 88 +4 +4 999.4 984.2
21 18.09 ЮЗ 1 20 км в посл. час ливневой дождь 10/8 300 м
[Cb calv As trans]
+7.9 +4.9 81 +7 +7 999.0 984.0
00 19.09 ЮЗ 1 20 км {ливн. осадки} 3/1 600 м
[Sc Ac trans Ci fib]
+6.4 +4.1 85 +5 +5 998.9 983.8
03 19.09 ЮЗ 1 20 км 3/1 600 м
[Sc Ac trans Ci sp]
+4.8 +4.0 95 +3 +4 998.3 983.1 +2.7
06 19.09 ЮВ 1 50 км 10/1 600 м
[Sc Ac As]
+9.0 +5.2 77 +8 +10 996.1 981.1
09 19.09 В 2 50 км 10/3 300 м
[Cb calv Ac As]
+10.6 +4.8 67 +9 +11 992.4 977.6
12 19.09 С 2 20 км слаб. ливневой дождь 10/4 300 м
[Cb calv As op]
+8.6 +6.5 87 +7 +7 990.1 975.2
15 19.09 СЗ 2 20 км в посл. час ливневой дождь 10/3 300 м
[Cb calv As trans]
+7.9 +5.9 87 +6 +6 989.3 974.4 +10.9 1
18 19.09 СЗ 4 4000 м слаб. ливневой дождь 9/8 300 м
[Cb calv Ac und]
+7.8 +5.6 86 +4 +4 992.2 977.3
21 19.09 З 3 20 км {ливн. осадки} 3/3 600 м
[Sc Ac trans]
+7.1 +3.8 80 +4 +4 996.1 981.0
00 20.09 З 2 20 км {ливн. осадки} 3/1 600 м
[Sc Ac trans]
+4.6 +1.3 79 +2 +2 999.6 984.3
03 20.09 З 5 50 км 3/1 600 м
[Sc Ac trans]
+4.5 -0.0 73 -0 0 1001.5 986.2 +4.1
06 20.09 З 4
{12}
50 км 6/6 600 м
[Cu Sc]
+6.7 -2.6 51 +4 +5 1004.6 989.4
09 20.09 З 5
{11}
50 км 9/8 600 м
[Sc Ac und]
+7.7 -3.4 45 +5 +5 1007.1 991.9
12 20.09 З 5
{11}
50 км 5/5 600 м
[Sc]
+8.3 -4.3 41 +5 +6 1009.2 994.0
15 20.09 ЮЗ 1
{10}
20 км 1/1 600 м
[Sc]
+3.5 -2.6 64 +2 +2 1011.6 996.0 +8.3
18 20.09 штиль 0 20 км ясно -1.7 -3.1 90 -3 -3 1013.1 997.3
21 20.09 В 1 20 км ясно -3.1 -4.0 93 -5 -5 1014.4 998.4
00 21.09 штиль 0 20 км ясно -4.2 -4.9 95 -5 -5 1014.8 998.8
03 21.09 В 1 50 км 9/5 300 м
[Cb calv Ac und Ci fib]
-2.7 -3.4 95 -5 -5 1014.9 999.0 -5.1
06 21.09 ЮВ 1 50 км в посл. час ливневой дождь 9/4 300 м
[Cb calv Ac trans Ci sp]
+3.8 +1.0 82 +2 +4 1013.9 998.4
09 21.09 Ю 3 50 км 5/3 600 м
[Cu med, cong Ac trans Ci fib]
+10.9 -0.9 44 +9 +12 1011.2 996.1
12 21.09 ЮВ 3 50 км 9/8 300 м
[Cb calv Ac und Ci fib]
+10.5 +0.3 49 +9 +9 1008.8 993.7
15 21.09 ЮВ 3 20 км 8/3 300 м
[Cb calv Ac trans Ci sp]
+6.9 +2.8 75 +4 +4 1006.7 991.5 +11.3
18 21.09 Ю 3 4000 м слаб. ливневой дождь 10/8 300 м
[Cb calv As op]
+7.2 +3.9 80 +4 +4 1004.8 989.6
21 21.09 ЮВ 1 20 км в посл. час ливневой дождь 10/6 300 м
[Cb calv Ac As]
+5.6 +4.4 92 +4 +4 1002.4 987.2

 

Местоположение метеостанции Верхотурье (Свердловская область, Россия): широта 58.87 долгота 60.78 высота над уровнем моря 126 м.

В архиве по умолчанию представлена погода в Верхотурье за последнюю неделю. Архивные данные за месяц целиком и за предыдущие месяцы, начиная с января 2011 года, Вы можете получить, выбрав интересующий диапазон дат из раскрывающегося списка и нажав кнопку "Ввод!".


*Определитесь, кто Вы:
робот инопланетянин человек

Внимание! Время в таблицах - всемирное. Для получения местного времени необходимо прибавить поправку, которая равна 5 ч.

Смотрите также архив погоды в соседних городах и на ближайших метеорологических станциях:

Погода в Качканаре (Свердловская область, Россия) (75 км)
Погода в Серове (Свердловская область, Россия) (82 км)
Погода в Кушве (Свердловская область, Россия) (85 км)
Погода в Карпинске (Свердловская область, Россия) (107 км)
Погода в Гарях (Свердловская область, Россия) (108 км)
Погода в Кытлыме (Свердловская область, Россия) (113 км)
Погода в Нижнем Тагиле (Свердловская область, Россия) (118 км)
Погода в Бисере (Пермский край, Россия) (118 км)
Погода в Алапаевске (Свердловская область, Россия) (123 км)
Погода в Висиме (Свердловская область, Россия) (152 км)

Пояснения к столбцам:

Ветер - указаны скорость ветра в м/с - средняя за 10 мин, порывы в срок и между сроками (в фигурных скобках) и направление, откуда дует ветер: С - северный, СВ - северо-восточный, В - восточный, ЮВ - юго-восточный, Ю - южный, ЮЗ - юго-западный, З - западный, СЗ - северо-западный.
Видимость - горизонтальная дальность видимости в метрах или километрах. При видимости от 1 до 10 км при отсутствии осадков обычно наблюдается дымка, при ухудшении видимости до 1 км и менее - туман. В сухую погоду видимость может ухудшаться дымом, пылью или мглою.
Явления - указаны атмосферные явления, наблюдавшиеся в срок или в последний час перед сроком; фигурными скобками обозначены явления, наблюдавшиеся между сроками (за 1-3 часа до срока); квадратными скобками обозначены град или гололедные отложения с указанием их диаметра в мм.
Облачность - указаны через наклонную черту общая и нижняя облачность в баллах и высота нижней границы облаков в метрах; квадратными скобками обозначены формы облаков: Ci - перистые, Cs - перисто-слоистые, Cc - перисто-кучевые, Ac - высококучевые, As - высокослоистые, Sc - слоисто-кучевые, Ns - слоисто-дождевые, Cu - кучевые, Cb - кучево-дождевые. Подробнее классификацию облаков см. в Атласе облаков (PDF).
T - Температура воздуха - температура, измеренная на высоте 2 м над землей.
Td - Температура точки росы - температура, при понижении до которой содержащийся в воздухе водяной пар достигнет насыщения.
f - Относительная влажность воздуха - влажноcть воздуха, измеренная на высоте 2 м над землей.
Te - Эффективная температура - температура, которую ощущает одетый по сезону человек в тени. Характеристика душности погоды. При расчете учитывается влияние влажности воздуха и скорости ветра на теплоощущения человека.
Tes - Эффективная температура на солнце - температура, которую ощущает человек, с поправкой на солнечный нагрев. Характеристика знойности погоды. Зависит от высоты солнца над горизонтом, облачности и скорости ветра. Ночью, в пасмурную погоду, а также при ветре 12 м/с и более поправка равна нулю.
P - Атмосферное давление - приведенное к уровню моря атмосферное давление.
Po - Атмосферное давление - измеренное на уровне метеостанции атмосферное давление.
Tmin - Минимальная температура - минимум температуры воздуха на высоте 2 м над землей.
Tmax - Максимальная температура - максимум температуры воздуха на высоте 2 м над землей.
R - Количество осадков - Количество выпавших осадков за период времени, мм. При наведении курсора мыши на число - период времени, за который выпало указанное количество осадков.
R24 - Количество осадков - Количество выпавших осадков за 24 часа, мм.
S - Снежный покров - Высота снежного покрова, см. При наведении курсора мыши на число - состояние снежного покрова и степень покрытия местности в баллах.